Date String (YYYY-MM-DD hh:mm:ss) UTC,Instrument flags,absolute air pressure of the measurement (hPa),sample flow rate (lpm),inlet stack bypass flow (lpm),air temperature of the measurement (°C),ambient temperature measured by the external sensor (°C),aerosol sample conditioner tube jacket temperature (°C),OPC LED temperature (°C),internal box temperature (°C),relative humidity of the measurement (%),span deviation,mass concentration of particles derived from Lorenz-Mie calculation of OPC scattering (μg/m³),mass concentration of particles derived from Lorenz-Mie calculation of OPC scattering (μg/m³),mass concentration of particles derived from Lorenz-Mie calculation of OPC scattering (μg/m³)
DateTimeUTC,F1_M11,P_M11,Q1_M11,Q2_M11,T1_M11,T2_M11,T3_M11,T4_M11,T5_M11,U1_M11,ZSPAN_M11,X0_M11,X2_M11,X1_M11
2024-02-12 17:00:00,SystemResetWarning,0827.5,5.00,000.00,018.8,018.4,000.0,027.1,020.5,15.6,0000.0,0008.92,0003.02,0002.36
2024-02-12 17:01:00,SystemResetWarning,0827.4,5.00,000.00,018.8,018.4,000.0,027.1,020.5,15.9,0000.0,0008.91,0003.01,0002.36
2024-02-12 17:02:00,SystemResetWarning,0827.4,5.00,000.00,018.8,018.5,000.0,027.1,020.5,15.6,0000.0,0008.86,0003.03,0002.38
2024-02-12 17:03:00,SystemResetWarning,0827.4,5.00,000.00,018.8,018.5,000.0,027.1,020.5,15.6,0000.0,0008.79,0003.05,0002.40
2024-02-12 17:04:00,SystemResetWarning,0827.4,4.99,000.00,018.8,018.5,000.0,027.1,020.5,15.4,0000.0,0007.87,0003.05,0002.41
2024-02-12 17:05:00,SystemResetWarning,0827.4,5.00,000.00,018.9,018.5,000.0,027.1,020.6,15.4,0000.0,0007.43,0003.05,0002.45
2024-02-12 17:06:00,SystemResetWarning,0827.4,5.00,000.00,018.9,018.5,000.0,027.1,020.6,15.7,0000.0,0007.54,0003.09,0002.47
2024-02-12 17:07:00,SystemResetWarning,0827.4,5.00,000.00,018.9,018.6,000.0,027.1,020.6,15.7,0000.0,0007.54,0003.09,0002.48
2024-02-12 17:08:00,SystemResetWarning,0827.3,5.00,000.00,018.9,018.6,000.0,027.1,020.6,15.1,0000.0,0007.67,0003.12,0002.51
2024-02-12 17:09:00,SystemResetWarning,0827.3,5.00,000.00,018.9,018.6,000.0,027.2,020.7,14.5,0000.0,0007.75,0003.14,0002.53
2024-02-12 17:10:00,SystemResetWarning,0827.3,5.00,000.00,018.9,018.6,000.0,027.2,020.7,14.4,0000.0,0006.97,0003.15,0002.55
2024-02-12 17:11:00,SystemResetWarning,0827.3,5.01,000.00,019.0,018.6,000.0,027.2,020.7,14.3,0000.0,0006.72,0003.15,0002.56
2024-02-12 17:12:00,SystemResetWarning,0827.4,5.00,000.00,019.0,018.6,000.0,027.2,020.7,14.0,0000.0,0007.41,0003.16,0002.56
2024-02-12 17:13:00,SystemResetWarning,0827.4,5.00,000.00,019.0,018.6,000.0,027.2,020.7,14.4,0000.0,0008.11,0003.15,0002.55
2024-02-12 17:14:00,SystemResetWarning,0827.4,5.00,000.00,019.0,018.7,000.0,027.2,020.8,14.7,0000.0,0008.15,0003.16,0002.51
2024-02-12 17:15:00,SystemResetWarning,0827.4,5.00,000.00,019.0,018.7,000.0,027.2,020.8,14.7,0000.0,0007.85,0003.12,0002.47
2024-02-12 17:16:00,SystemResetWarning,0827.4,5.00,000.00,019.0,018.7,000.0,027.2,020.8,15.0,0000.0,0007.88,0003.09,0002.42
2024-02-12 17:17:00,SystemResetWarning,0827.4,5.00,000.00,019.0,018.7,000.0,027.2,020.8,14.1,0000.0,0007.77,0003.04,0002.38
2024-02-12 17:18:00,SystemResetWarning,0827.4,5.00,000.00,019.0,018.7,000.0,027.3,020.8,12.4,0000.0,0007.69,0002.97,0002.33
2024-02-12 17:19:00,SystemResetWarning,0827.3,5.00,000.00,019.0,018.7,000.0,027.3,020.8,13.4,0000.0,0007.70,0002.89,0002.26
2024-02-12 17:20:00,SystemResetWarning,0827.3,4.99,000.00,019.1,018.7,000.0,027.3,020.8,12.9,0000.0,0007.66,0002.83,0002.20
2024-02-12 17:21:00,SystemResetWarning,0827.3,5.01,000.00,019.1,018.8,000.0,027.3,020.8,12.6,0000.0,0007.48,0002.75,0002.17
2024-02-12 17:22:00,SystemResetWarning,0827.3,5.00,000.00,019.1,018.8,000.0,027.3,020.9,12.2,0000.0,0007.25,0002.72,0002.15
2024-02-12 17:23:00,SystemResetWarning,0827.2,5.01,000.00,019.1,018.8,000.0,027.3,020.9,12.1,0000.0,0006.33,0002.63,0002.10
2024-02-12 17:24:00,SystemResetWarning,0827.2,5.00,000.00,019.1,018.8,000.0,027.3,020.9,12.4,0000.0,0005.80,0002.45,0001.98
2024-02-12 17:25:00,SystemResetWarning,0827.2,4.99,000.00,019.1,018.8,000.0,027.4,020.9,12.5,0000.0,0005.28,0002.32,0001.90
2024-02-12 17:26:00,SystemResetWarning,0827.2,4.99,000.00,019.2,018.8,000.0,027.4,020.9,12.6,0000.0,0004.64,0002.27,0001.85
2024-02-12 17:27:00,SystemResetWarning,0827.2,4.99,000.00,019.2,018.9,000.0,027.4,020.9,13.1,0000.0,0004.27,0002.19,0001.77
2024-02-12 17:28:00,SystemResetWarning,0827.2,5.00,000.00,019.2,018.9,000.0,027.4,020.9,12.9,0000.0,0004.52,0002.08,0001.67
2024-02-12 17:29:00,SystemResetWarning,0827.2,5.01,000.00,019.2,018.9,000.0,027.4,021.0,12.4,0000.0,0005.26,0001.99,0001.59
2024-02-12 17:30:00,SystemResetWarning,0827.2,5.00,000.00,019.2,018.9,000.0,027.4,021.0,12.3,0000.0,0004.93,0001.90,0001.53
2024-02-12 17:31:00,SystemResetWarning,0827.2,5.01,000.00,019.2,018.9,000.0,027.4,021.0,12.8,0000.0,0004.61,0001.79,0001.47
2024-02-12 17:32:00,SystemResetWarning,0827.2,5.00,000.00,019.2,018.9,000.0,027.5,021.0,12.6,0000.0,0005.84,0001.69,0001.38
2024-02-12 17:33:00,SystemResetWarning,0827.2,4.99,000.00,019.3,018.9,000.0,027.5,021.0,12.0,0000.0,0006.93,0001.57,0001.29
2024-02-12 17:34:00,SystemResetWarning,0827.2,5.00,000.00,019.3,019.0,000.0,027.5,021.0,12.3,0000.0,0006.84,0001.50,0001.24
2024-02-12 17:35:00,SystemResetWarning,0827.1,5.01,000.00,019.3,019.0,000.0,027.5,021.0,12.4,0000.0,0005.99,0001.50,0001.24
2024-02-12 17:36:00,SystemResetWarning,0827.2,5.01,000.00,019.3,019.0,000.0,027.5,021.1,11.8,0000.0,0006.12,0001.45,0001.22
2024-02-12 17:37:00,SystemResetWarning,0827.1,5.00,000.00,019.3,019.0,000.0,027.5,021.1,11.9,0000.0,0006.00,0001.37,0001.17
2024-02-12 17:38:00,SystemResetWarning,0827.1,4.99,000.00,019.3,019.0,000.0,027.5,021.1,12.2,0000.0,0005.94,0001.35,0001.16
2024-02-12 17:39:00,SystemResetWarning,0827.1,4.99,000.00,019.3,019.0,000.0,027.5,021.1,12.2,0000.0,0005.69,0001.31,0001.16
2024-02-12 17:40:00,SystemResetWarning,0827.2,5.01,000.00,019.4,019.0,000.0,027.6,021.1,12.4,0000.0,0004.85,0001.30,0001.17
2024-02-12 17:41:00,SystemResetWarning,0827.1,5.01,000.00,019.4,019.0,000.0,027.6,021.1,12.2,0000.0,0004.55,0001.28,0001.16
2024-02-12 17:42:00,SystemResetWarning,0827.2,4.99,000.00,019.4,019.0,000.0,027.6,021.1,11.9,0000.0,0004.49,0001.25,0001.15
2024-02-12 17:43:00,SystemResetWarning,0827.2,5.00,000.00,019.4,019.1,000.0,027.6,021.2,12.1,0000.0,0004.48,0001.25,0001.14
2024-02-12 17:44:00,SystemResetWarning,0827.1,5.00,000.00,019.4,019.1,000.0,027.6,021.1,12.0,0000.0,0002.18,0001.25,0001.13
2024-02-12 17:45:00,SystemResetWarning,0827.1,4.99,000.00,019.4,019.1,000.0,027.6,021.2,12.1,0000.0,0001.90,0001.24,0001.11
2024-02-12 17:46:00,SystemResetWarning,0827.1,5.00,000.00,019.4,019.1,000.0,027.6,021.2,12.0,0000.0,0001.94,0001.24,0001.11
2024-02-12 17:47:00,SystemResetWarning,0827.1,5.01,000.00,019.4,019.1,000.0,027.6,021.2,12.0,0000.0,0001.59,0001.22,0001.09
2024-02-12 17:48:00,SystemResetWarning,0827.1,5.01,000.00,019.4,019.1,000.0,027.7,021.2,11.8,0000.0,0001.60,0001.26,0001.09
2024-02-12 17:49:00,SystemResetWarning,0827.0,5.01,000.00,019.5,019.1,000.0,027.7,021.2,12.0,0000.0,0001.70,0001.30,0001.09
2024-02-12 17:50:00,SystemResetWarning,0827.0,5.00,000.00,019.5,019.1,000.0,027.7,021.2,12.3,0000.0,0001.87,0001.34,0001.11
2024-02-12 17:51:00,SystemResetWarning,0827.0,4.99,000.00,019.5,019.1,000.0,027.7,021.2,12.5,0000.0,0003.31,0001.38,0001.11
2024-02-12 17:52:00,SystemResetWarning,0827.0,4.99,000.00,019.5,019.1,000.0,027.7,021.2,12.5,0000.0,0003.38,0001.39,0001.11
2024-02-12 17:53:00,SystemResetWarning,0827.1,5.00,000.00,019.5,019.1,000.0,027.7,021.2,12.2,0000.0,0003.40,0001.40,0001.12
2024-02-12 17:54:00,SystemResetWarning,0827.1,4.99,000.00,019.5,019.1,000.0,027.7,021.2,12.2,0000.0,0003.41,0001.41,0001.13
2024-02-12 17:55:00,SystemResetWarning,0827.1,5.00,000.00,019.5,019.1,000.0,027.7,021.3,12.5,0000.0,0004.49,0001.40,0001.15
2024-02-12 17:56:00,SystemResetWarning,0827.1,5.00,000.00,019.5,019.1,000.0,027.8,021.3,12.6,0000.0,0004.55,0001.43,0001.15
2024-02-12 17:57:00,SystemResetWarning,0827.0,5.01,000.00,019.5,019.2,000.0,027.8,021.3,12.3,0000.0,0004.53,0001.43,0001.16
2024-02-12 17:58:00,SystemResetWarning,0827.1,5.01,000.00,019.5,019.2,000.0,027.8,021.3,12.6,0000.0,0004.58,0001.46,0001.18
2024-02-12 17:59:00,SystemResetWarning,0827.1,5.00,000.00,019.5,019.2,000.0,027.8,021.3,12.4,0000.0,0004.50,0001.43,0001.20
